Location: Boley
(53.1150°N, 8.2269°W)
Time: 22:43:51
(UTC+00:00)

Cosmos 1953 Rocket - Pass Details

Date: 15 May 2026
Orbit: 597 x 628 km, 82.5° (Epoch: 6 June)

Event Time Altitude Azimuth Distance (km) Brightness Sun altitude
Rises 22:10:42 0° 351° (N) 2,887 8.3 -11.9°
Reaches altitude 10° 22:12:59 10° 356° (N) 1,973 7.2 -12.1°
Maximum altitude 22:17:17 57° 75° (ENE) 717 3.8 -12.4°
Enters shadow 22:20:10 20° 149° (SSE) 1,426 4.8 -12.6°
